Other Public Products
Issued by NWS Grand Forks, ND

Home | Current Version | Previous Version | Text Only | Print | Product List | Glossary Off
Versions: 1 2 3 4 5 6 7 8 9 10 11 12 13 14 15 16 17 18 19 20 21 22 23 24 25 26 27 28 29 30 31 32 33 34 35 36 37 38 39 40 41 42 43 44 45 46 47 48 49 50

000
FPUS83 KFGF 172231
OPUFGF
PRAIRIE TO PINES WEATHER ROUNDUP
NATIONAL WEATHER SERVICE EASTERN NORTH DAKOTA/GRAND FORKS ND
500 PM CDT FRI APR 17 2015

 **SATELLITE DATA USED TO AUGMENT SKY COVER AT AUTOMATED STATIONS**
 *****  WEATHER ACROSS EASTERN NORTH DAKOTA  *****

CITY           SKY/WX    TMP DP  RH WIND       PRES   REMARKS
GRAND FORKS    SUNNY     75  27  17 NW24G32   30.00R
GRAND FORKS AF SUNNY     75  27  17 N16G26    30.01R
GRAND CITY NWS   N/A     72 N/A N/A N16         N/A
BUXTON           N/A     76  27  16 CALM        N/A
DEVILS LAKE    SUNNY     68  25  19 N18       30.05R
FARGO          SUNNY     76  16  10 NW15G24   30.02F
WAHPETON ARPT  CLEAR     72  12  10 NW16      30.04S
$$

 *****  WEATHER ACROSS CENTRAL AND WESTERN NORTH DAKOTA  *****

CITY           SKY/WX    TMP DP  RH WIND       PRES   REMARKS
JAMESTOWN      SUNNY     71  18  13 CALM      30.04F
BISMARCK       MOSUNNY   71  24  17 CALM      30.08F
MINOT          SUNNY     69  29  22 N17       30.08F
MINOT AFB      SUNNY     67  30  25 N16       30.08F
GARRISON         N/A     73  26  17 N9G16     30.07F
WILLISTON      SUNNY     71  24  17 N9        30.09F
DICKINSON      MOSUNNY   69  17  13 VRB5      30.08F
HETTINGER      PTSUNNY   66  21  18 VRB3      30.11F
$$

 *****  OTHER OBSERVATIONS NORTHEAST NORTH DAKOTA  *****

CITY           SKY/WX    TMP DP  RH WIND       PRES   REMARKS
WALHALLA       FAIR      63  25  23 N20G29    30.09R
LANGDON        FAIR      64  30  27 N22       30.07S
CAVALIER       FAIR      64  23  20 N22G32    30.07R
GRAFTON        FAIR      68  30  24 N21G30    30.04R
CANDO          FAIR      68  19  15 N14G23    30.08S
FORT TOTTEN    NOT AVBL
ROLLA          FAIR      63  18  17 NW18      30.11S
RUGBY          FAIR      66  25  20 N13G22    30.08S
 ***** THE ABOVE OBSERVATIONS ARE NON NWS ARE NOT QUALITY
        CONTROLLED AND MAY MIS-REPORT RAIN FOR SNOW...
$$

 *****  OTHER OBSERVATIONS SOUTHEAST NORTH DAKOTA *****

CITY           SKY/WX    TMP DP  RH WIND       PRES   REMARKS
COOPERSTOWN    NOT AVBL
VALLEY CITY    FAIR      73  21  14 NW8       30.04F
OAKES            N/A     72  23  16 W8        30.06F
GWINNER        CLEAR     73  23  15 W5        30.06F
SHEYENNE NWR     N/A     74  16  11 NW8       29.95S
BUFFALO        NOT AVBL
WYNDMERE         N/A     73  12   9 NW9         N/A
 ***** THE ABOVE OBSERVATIONS ARE NON NWS ARE NOT QUALITY
       CONTROLLED AND MAY MIS-REPORT RAIN FOR SNOW...
$$

  *****  WEATHER ACROSS NORTHERN MINNESOTA  *****

CITY           SKY/WX    TMP DP  RH WIND       PRES   REMARKS
FLAG ISLAND    SUNNY     54  25  32 N21       30.02R
WARROAD        SUNNY     66  27  22 NW14G26   30.02R
ROSEAU         SUNNY     66  16  14 NW18G28   30.02R
HALLOCK        SUNNY     66   3   8 N24G35    30.04S
THF RVR FALLS  SUNNY     70  30  23 NW22G31   30.01R
HALSTAD          N/A     76  19  12 NW14G26     N/A
FOSSTON        SUNNY     73  21  14 W18       30.00F
BAUDETTE       SUNNY     67  27  22 NW26G33   29.98R
WASKISH        SUNNY     61  32  33 CALM      29.97S
CROOKSTON      SUNNY     73  30  20 NE24G33   29.99S
$$
  *****  WEATHER ACROSS CENTRAL AND WEST MINNESOTA  *****

CITY           SKY/WX    TMP DP  RH WIND       PRES   REMARKS
BEMIDJI        SUNNY     72  23  15 W13G22    29.99F
PARK RAPIDS    SUNNY     74  17  11 NW16G26   30.01F
WADENA         SUNNY     70  28  21 W12G17    30.03F
DETROIT LAKES  SUNNY     72  19  14 NW14G23   30.04S
MOORHEAD       SUNNY     75  18  11 W10G16    30.02F
FERGUS FALLS   SUNNY     72  10   9 W9        30.04S
ELBOW LAKE     FAIR      70  23  17 NW10      30.04F
MORRIS MN      SUNNY     73  19  13 NW10      30.04S
STAPLES        SUNNY     70  18  13 W14G20    30.03F
WHEATON        SUNNY     70  23  17 W8        30.07S
$$
  *****  WEATHER ELSEWHERE ACROSS MINNESOTA  *****

CITY           SKY/WX    TMP DP  RH WIND       PRES   REMARKS
DULUTH         SUNNY     73  24  16 W14G22    29.97F
INTRNTL FALLS  SUNNY     71  19  14 NW24G40   29.92S
ELY            SUNNY     70  18  13 W16G24    29.94S
CLOQUET        SUNNY     72  10   9 W12G21    29.98S
BRAINERD       SUNNY     71  18  13 W9G17     30.02F
HIBBING        SUNNY     71  19  14 NW8G23    29.97F
ALEXANDRIA     SUNNY     71  17  12 NW10      30.06F
SAINT CLOUD    SUNNY     72  24  16 NW12      30.02F
MINNEAPOLIS    MOSUNNY   74  34  23 SW6       30.01F
$$

  *****  WEATHER ACROSS SOUTH DAKOTA  *****

CITY           SKY/WX    TMP DP  RH WIND       PRES   REMARKS
SIOUX FALLS    PTSUNNY   75  43  31 NE5       30.03F
BROOKINGS      SUNNY     72  27  18 N6        30.06S
WATERTOWN      SUNNY     70  16  12 NW9       30.07F
HURON          MOSUNNY   74  30  19 N7        30.05F
SISSETON         N/A     72  14  11 NW7       30.05F
ABERDEEN       MOSUNNY   73  23  15 NW8       30.07F
MITCHELL       CLOUDY    74  38  27 N12       30.05F
PIERRE         CLOUDY    71  31  22 E9        30.06F
MOBRIDGE       PTSUNNY   72  22  15 CALM      30.06F
RAPID CITY     LGT RAIN  53  38  56 S12       30.14S
$$

  *****  SOME WEATHER IN NEARBY STATES *****

CITY           SKY/WX    TMP DP  RH WIND       PRES   REMARKS
GLASGOW MT     SUNNY     70  24  17 S12       30.06F
GREAT FALLS MT SUNNY     67  28  23 W7        30.03F
CHEYENNE WY    LGT SNOW  34  32  92 NW13      30.04F FOG     WCI  25
SCOTTSBLUFF NE LGT RAIN  47  47 100 NE26G33   30.02F
OMAHA NE       CLOUDY    77  52  41 SE7       29.98F
DES MOINES IA  PTSUNNY   78  49  35 SW7       30.00F
DAVENPORT IA   SUNNY     77  44  30 VRB3      30.00F
CHICAGO IL     PTSUNNY   76  45  33 SW12      29.98F
EAU CLAIRE WI  SUNNY     75  40  28 W6        29.99S
LA CROSSE WI   SUNNY     80  42  25 NW9       29.98S
$$

  *****  SOME NATIONAL WEATHER *****

CITY           SKY/WX    TMP DP  RH WIND       PRES   REMARKS
LA GUARDIA NY  PTSUNNY   70  53  54 W10       29.89F
RALEIGH NC     PTSUNNY   75  62  64 CALM      29.99F
ATLANTA GA     LGT RAIN  63  59  87 E3        30.02F FOG
NEW ORLEANS LA PTSUNNY   81  67  62 W5        29.90F
OKLAHOMA CITY  CLOUDY    70  57  63 N7        29.95F
ALBUQUERQUE NM CLOUDY    52  17  25 SW12G30   30.01F
SALT LAKE CITY PTSUNNY   59  36  42 W12       30.03F
LOS ANGELES CA SUNNY     70  47  43 W21G26    30.00F
BOISE ID       SUNNY     70  29  21 NW10G17   30.08F
SEATTLE WA     MOSUNNY   65  36  34 N16       30.25F
$$

*** WEATHER ACROSS MANITOBA...SASKATCHEWAN AND ONTARIO ***
                ***ONTARIO***

CITY           SKY/WX    TMP DP  RH WIND       PRES   REMARKS
GERALDTON      PTSUNNY   55  28  35 W10G25    29.86R
THUNDER BAY    MOSUNNY   68  25  19 SW18G26   29.86F
SIOUX LOOKOUT  MOSUNNY   61  23  23 NW21G36   29.89R
TORONTO        MOSUNNY   70  37  30 NW14G24   29.94S
BIG TROUT LK   CLOUDY    41  32  70 NW8       29.98R
PICKLE LAKE    LGT RAIN  36  34  93 N9G20     29.94R
DRYDEN         SUNNY     63  21  20 NW16G36   29.92R
KENORA         MOSUNNY   61  27  27 N18G30    30.00R
$$
                *** MANITOBA***

CITY           SKY/WX    TMP DP  RH WIND       PRES   REMARKS
BRANDON        MOSUNNY   63  27  25 VRB12G17  30.11S
DAUPHIN        SUNNY     57  36  44 NE10      30.15S
ISLAND LAKE    MOSUNNY   52  30  43 W6        30.05R
PILOT MOUND      N/A     61  28  29 N15G22      N/A
THE PAS        MOSUNNY   55  28  35 N7        30.12S
THOMPSON       MOSUNNY   54  25  32 N13G26    30.05R
WINNIPEG       MOSUNNY   63  30  29 N21G28    30.10R
LYNN LAKE      SUNNY     52  21  30 NW10G18   30.07S
CHURCHILL      MOSUNNY   25  18  74 N18G24    30.11  WCI  11
GILLAM         MOSUNNY   39  36  87 NE12      30.07R
$$
                ***SASKATCHEWAN***

CITY           SKY/WX    TMP DP  RH WIND       PRES   REMARKS
ESTEVAN        MOSUNNY   63  23  22 N5        30.12F
KINDERSLEY     MOSUNNY   66  27  22 S17G28    30.01F
LLOYDMINSTER   PTSUNNY   59  25  27 SE14      29.97F
PRINCE ALBERT  PTSUNNY   59  18  20 SW10      30.10F
REGINA         SUNNY     61  25  25 VRB2      30.13F


USA.gov is the U.S. government's official web portal to all federal, state and local government web resources and services.